User: anonymous   Login
Location: Unspecified
(0.0000°N, 0.0000°E)
Time: 03:26:05
(UTC+00:00)
Language:

USA 179 - Orbit

View from above orbital plane
View from above orbital plane
View from above satellite
View from above satellite

Ground track
Ground track

The orbit data is extracted from the following two-line orbital elements,

1 28384U 04034A   17328.60803246 0.00000000  00000-0  00000-0 0    09
2 28384  63.2350 286.3401 7290093 272.4878  13.8321  2.00626000    02
Epoch (UTC): 24 November 2017 14:35:34
Eccentricity: 0.7290093
inclination: 63.2350°
perigee height: 818 km
apogee height: 39535 km
right ascension of ascending node: 286.3401°
argument of perigee: 272.4878°
revolutions per day: 2.00626000
mean anomaly at epoch: 13.8321°
orbit number at epoch: 0

The dashed part of the orbit path shows where the satellite is in the earth's shadow,  

DLR